Voltar ao catálogo

COSMOS 1317

LostMilitarHEO
NORAD 12933·PAYLOAD·🇷🇺 Russia

Lançado Oct 31, 1981 de Plesetsk Cosmodrome

Loading…

Próximas Passagens (próximas 24 horas)

TLE

ObsoletoSource: Space-Track

Época: Nov 6, 2025, 11:49 UTC

1 12933U 81108A   25310.49239420  .00000119  00000-0  00000-0 0  9991
2 12933  71.5073 119.7468 4749935 327.7124 272.1738  2.00242621321809

Acompanhe COSMOS 1317 em tempo real com AllMySat

Download on the App Store